Change the Weather History Date:

Wednesday, June 18, 2014

  Actual Average (KOGB) Record (KOGB)
Temperature  
Mean Temperature 78 °F 79 °F  
Max Temperature 91 °F 89 °F 99 °F (1981)
Min Temperature 64 °F 68 °F 56 °F (1961)
Degree Days  
Heating Degree Days 0 0  
Month to date heating degree days 0  
Since 1 June heating degree days 0  
Since 1 July heating degree days 2332  
Cooling Degree Days 12 14  
Month to date cooling degree days 221  
Year to date cooling degree days 524  
Since 1 June cooling degree days 221  
Growing Degree Days 28 (Base 50)    
Moisture  
Dew Point 67 °F    
Average Humidity 67    
Maximum Humidity 100    
Minimum Humidity 34    
Precipitation  
Precipitation 0.00 in 0.18 in 1.74 in (1963)
Month to date precipitation 3.02  
Year to date precipitation 20.64  
Sea Level Pressure  
Sea Level Pressure 30.14 in    
Wind  
Wind Speed 2 mph (South)    
Max Wind Speed 8 mph    
Max Gust Speed -    
Visibility 10 miles    
Events      
T = Trace of Precipitation, MM = Missing Value Source: NWS Daily Summary

Daily Weather History Graph

Daily Weather History Graph

Search for Another Location

Airport or City:

Trip Planner

Search our weather history database for the weather conditions in past years. The results will help you decide how hot, cold, wet, or windy it might be!

Date:

Astronomy

Jun. 18, 2014 Rise Set
Actual Time 6:16 AM EDT 8:37 PM EDT
Civil Twilight 5:47 AM EDT 9:06 PM EDT
Nautical Twilight 5:11 AM EDT 9:41 PM EDT
Astronomical Twilight 4:33 AM EDT 10:20 PM EDT
Moon 12:20 AM EDT (6/18) 12:20 PM EDT (6/18)
Length of Visible Light 15h 18m
Length of Day
14h 21m
Waning Gibbous, 63% of the Moon is Illuminated
Jun 18
Waning Gibbous
Jun 19
Last Quarter
Jun 27
New
Jul 5
First Quarter
Jul 12
Full

Hourly Weather History & Observations

Time (EDT) Temp. Heat Index Dew Point Humidity Pressure Visibility Wind Dir Wind Speed Gust Speed Precip Events Conditions
12:15 AM 75.2 °F - 68.0 °F 78% 30.16 in 10.0 mi Calm Calm - N/A   Clear
12:35 AM 73.4 °F - 68.0 °F 83% 30.17 in 10.0 mi Calm Calm - N/A   Clear
12:55 AM 73.4 °F - 66.2 °F 78% 30.16 in 10.0 mi South 3.5 mph - N/A   Clear
1:15 AM 73.4 °F - 66.2 °F 78% 30.16 in 10.0 mi Calm Calm - N/A   Clear
1:35 AM 73.4 °F - 66.2 °F 78% 30.15 in 10.0 mi SSW 3.5 mph - N/A   Clear
1:55 AM 69.8 °F - 66.2 °F 88% 30.15 in 10.0 mi Calm Calm - N/A   Clear
2:15 AM 69.8 °F - 66.2 °F 88% 30.15 in 10.0 mi Calm Calm - N/A   Clear
2:35 AM 69.8 °F - 66.2 °F 88% 30.15 in 10.0 mi Calm Calm - N/A   Clear
2:55 AM 69.8 °F - 66.2 °F 88% 30.14 in 10.0 mi Calm Calm - N/A   Clear
3:15 AM 68.0 °F - 66.2 °F 94% 30.15 in 10.0 mi Calm Calm - N/A   Clear
3:35 AM 68.0 °F - 66.2 °F 94% 30.14 in 10.0 mi Calm Calm - N/A   Clear
3:55 AM 66.2 °F - 66.2 °F 100% 30.13 in 10.0 mi Calm Calm - N/A   Clear
4:15 AM 66.2 °F - 64.4 °F 94% 30.14 in 10.0 mi Calm Calm - N/A   Clear
4:35 AM 66.2 °F - 64.4 °F 94% 30.14 in 10.0 mi Calm Calm - N/A   Clear
4:55 AM 66.2 °F - 64.4 °F 94% 30.14 in 10.0 mi Calm Calm - N/A   Clear
5:15 AM 66.2 °F - 66.2 °F 100% 30.14 in 10.0 mi Calm Calm - N/A   Clear
5:35 AM 66.2 °F - 64.4 °F 94% 30.14 in 10.0 mi Calm Calm - N/A   Clear
5:55 AM 64.4 °F - 64.4 °F 100% 30.14 in 10.0 mi Calm Calm - N/A   Clear
6:15 AM 64.4 °F - 62.6 °F 94% 30.15 in 8.0 mi Calm Calm - N/A   Clear
6:35 AM 64.4 °F - 62.6 °F 94% 30.16 in 10.0 mi Calm Calm - N/A   Clear
6:55 AM 66.2 °F - 64.4 °F 94% 30.16 in 10.0 mi Calm Calm - N/A   Clear
7:15 AM 68.0 °F - 66.2 °F 94% 30.17 in 10.0 mi Calm Calm - N/A   Clear
7:35 AM 69.8 °F - 66.2 °F 88% 30.17 in 10.0 mi Calm Calm - N/A   Clear
7:55 AM 73.4 °F - 68.0 °F 83% 30.18 in 10.0 mi Calm Calm - N/A   Clear
8:15 AM 75.2 °F - 69.8 °F 83% 30.18 in 10.0 mi WSW 3.5 mph - N/A   Clear
8:35 AM 75.2 °F - 71.6 °F 89% 30.18 in 10.0 mi WSW 4.6 mph - N/A   Clear
8:55 AM 77.0 °F - 71.6 °F 83% 30.19 in 10.0 mi WSW 3.5 mph - N/A   Clear
9:15 AM 80.6 °F 84.6 °F 71.6 °F 74% 30.18 in 10.0 mi WSW 6.9 mph - N/A   Clear
9:35 AM 80.6 °F 83.9 °F 69.8 °F 70% 30.18 in 10.0 mi SSW 6.9 mph - N/A   Clear
9:55 AM 82.4 °F 86.3 °F 69.8 °F 66% 30.18 in 10.0 mi SW 3.5 mph - N/A   Clear
10:15 AM 82.4 °F 87.2 °F 71.6 °F 70% 30.18 in 10.0 mi SSW 3.5 mph - N/A   Clear
10:35 AM 82.4 °F 86.3 °F 69.8 °F 66% 30.17 in 10.0 mi WSW 4.6 mph - N/A   Clear
10:55 AM 84.2 °F 88.4 °F 69.8 °F 62% 30.17 in 10.0 mi SSE 5.8 mph - N/A   Clear
11:15 AM 84.2 °F 88.4 °F 69.8 °F 62% 30.17 in 10.0 mi SW 5.8 mph - N/A   Clear
11:35 AM 86.0 °F 89.4 °F 68.0 °F 55% 30.18 in 9.0 mi SSW 5.8 mph - N/A   Clear
11:55 AM 86.0 °F 89.4 °F 68.0 °F 55% 30.18 in 10.0 mi Calm Calm - N/A   Clear
12:15 PM 87.8 °F 92.6 °F 69.8 °F 55% 30.18 in 10.0 mi South 3.5 mph - N/A   Clear
12:35 PM 87.8 °F 90.4 °F 66.2 °F 49% 30.17 in 10.0 mi ENE 3.5 mph - N/A   Partly Cloudy
12:55 PM 87.8 °F 91.4 °F 68.0 °F 52% 30.16 in 10.0 mi East 6.9 mph - N/A   Clear
1:15 PM 87.8 °F 90.4 °F 66.2 °F 49% 30.16 in 10.0 mi South 5.8 mph - N/A   Clear
1:35 PM 89.6 °F 93.4 °F 68.0 °F 49% 30.15 in 10.0 mi SSE 5.8 mph - N/A   Clear
1:55 PM 89.6 °F 92.2 °F 66.2 °F 46% 30.14 in 10.0 mi SSE 4.6 mph - N/A   Clear
2:15 PM 89.6 °F 92.2 °F 66.2 °F 46% 30.14 in 10.0 mi ESE 6.9 mph - N/A   Partly Cloudy
2:35 PM 89.6 °F 91.1 °F 64.4 °F 43% 30.13 in 10.0 mi NNE 4.6 mph - N/A   Clear
2:55 PM 91.4 °F 94.0 °F 66.2 °F 43% 30.13 in 10.0 mi East 5.8 mph - N/A   Clear
3:15 PM 91.4 °F 93.2 °F 64.4 °F 41% 30.12 in 10.0 mi ESE 6.9 mph - N/A   Clear
3:35 PM 91.4 °F 93.2 °F 64.4 °F 41% 30.12 in 10.0 mi East 5.8 mph - N/A   Clear
3:55 PM 91.4 °F 93.2 °F 64.4 °F 41% 30.11 in 10.0 mi SE 8.1 mph - N/A   Clear
4:15 PM 91.4 °F 92.1 °F 62.6 °F 38% 30.11 in 10.0 mi South 6.9 mph - N/A   Clear
4:35 PM 91.4 °F 92.1 °F 62.6 °F 38% 30.11 in 10.0 mi SSW 4.6 mph - N/A   Clear
4:55 PM 91.4 °F 91.4 °F 60.8 °F 36% 30.11 in 10.0 mi South 4.6 mph - N/A   Clear
5:15 PM 91.4 °F 91.4 °F 60.8 °F 36% 30.10 in 10.0 mi NE 3.5 mph - N/A   Clear
5:35 PM 91.4 °F 91.4 °F 60.8 °F 36% 30.09 in 10.0 mi SSE 3.5 mph - N/A   Clear
5:55 PM 91.4 °F 90.7 °F 59.0 °F 34% 30.09 in 10.0 mi SSE 4.6 mph - N/A   Clear
6:15 PM 91.4 °F 90.7 °F 59.0 °F 34% 30.10 in 10.0 mi Calm Calm - N/A   Clear
6:35 PM 91.4 °F 91.4 °F 60.8 °F 36% 30.10 in 10.0 mi SSE 3.5 mph - N/A   Clear
6:55 PM 91.4 °F 91.4 °F 60.8 °F 36% 30.10 in 10.0 mi SE 3.5 mph - N/A   Clear
7:15 PM 89.6 °F 92.2 °F 66.2 °F 46% 30.10 in 10.0 mi SW 5.8 mph - N/A   Clear
7:35 PM 89.6 °F 93.4 °F 68.0 °F 49% 30.10 in 10.0 mi SW 4.6 mph - N/A   Clear
7:55 PM 86.0 °F 90.4 °F 69.8 °F 58% 30.10 in 10.0 mi Calm Calm - N/A   Clear
8:15 PM 86.0 °F 89.4 °F 68.0 °F 55% 30.10 in 10.0 mi South 3.5 mph - N/A   Clear
8:35 PM 84.2 °F 87.3 °F 68.0 °F 58% 30.11 in 10.0 mi Calm Calm - N/A   Clear
8:55 PM 82.4 °F 86.3 °F 69.8 °F 66% 30.11 in 10.0 mi Calm Calm - N/A   Clear
9:15 PM 80.6 °F 83.9 °F 69.8 °F 70% 30.11 in 10.0 mi Calm Calm - N/A   Clear
9:35 PM 82.4 °F 84.6 °F 66.2 °F 58% 30.12 in 10.0 mi South 3.5 mph - N/A   Clear
9:55 PM 80.6 °F 83.9 °F 69.8 °F 70% 30.12 in 10.0 mi South 5.8 mph - N/A   Clear
10:15 PM 80.6 °F 83.9 °F 69.8 °F 70% 30.13 in 10.0 mi SSE 5.8 mph - N/A   Clear
10:35 PM 80.6 °F 83.9 °F 69.8 °F 70% 30.13 in 10.0 mi South 4.6 mph - N/A   Clear
10:55 PM 78.8 °F - 69.8 °F 74% 30.14 in 10.0 mi SSE 5.8 mph - N/A   Clear
11:15 PM 78.8 °F - 69.8 °F 74% 30.15 in 10.0 mi South 5.8 mph - N/A   Clear
11:35 PM 78.8 °F - 69.8 °F 74% 30.15 in 10.0 mi South 4.6 mph - N/A   Clear
11:55 PM 78.8 °F - 69.8 °F 74% 30.15 in 10.0 mi South 4.6 mph - N/A   Clear